Hourly Weather Roundup
Issued by NWS Central Illinois

Home | Current Version | Previous Version | Text Only | Print | Product List | Glossary On
Versions: 1 2 3 4 5 6 7 8 9 10 11 12 13 14 15 16 17 18 19 20 21 22 23 24 25 26 27 28 29 30 31 32 33 34 35 36 37 38 39 40 41 42 43 44 45 46 47 48 49 50
774
NZUS43 KILX 211810
HWRILX

AREA WEATHER ROUNDUP
NATIONAL WEATHER SERVICE, LINCOLN IL
1200 PM CST SAT JAN 21 2017


CITY           SKY/WX    TMP DP  RH WIND       PRES   REMARKS
BLOOMINGTON    SUNNY     58  48  69 SW21      29.51F
6HR MIN TEMP:  45; 6HR MAX TEMP:  58;

CHAMPAIGN      SUNNY     60  50  69 SW21      29.54F
6HR MIN TEMP:  47; 6HR MAX TEMP:  60;

DANVILLE       MOSUNNY   59  52  77 SW16G24   29.53F
6HR MIN TEMP:  44; 6HR MAX TEMP:  59;

DECATUR        SUNNY     60  50  69 SW17G25   29.53F
6HR MIN TEMP:  48; 6HR MAX TEMP:  60;

EFFINGHAM      SUNNY     64  54  70 S12G18    29.58F
6HR MIN TEMP:  48; 6HR MAX TEMP:  64;

FLORA          MOSUNNY   64  56  74 SW14G20   29.59F
6HR MIN TEMP:  50; 6HR MAX TEMP:  64;

GALESBURG      SUNNY     52  45  77 SW14G21   29.47F
6HR MIN TEMP:  42; 6HR MAX TEMP:  52;

JACKSONVILLE   SUNNY     59  44  57 SW16      29.51F
6HR MIN TEMP:  48; 6HR MAX TEMP:  59;

LACON          SUNNY     56  45  65 SW13      29.46F
6HR MIN TEMP:  45; 6HR MAX TEMP:  56;

LAWRENCEVILLE  CLOUDY    64  56  75 SW20      29.59F
6HR MIN TEMP:  49; 6HR MAX TEMP:  64;

LITCHFIELD     SUNNY     60  48  65 SW16      29.54F
6HR MIN TEMP:  46; 6HR MAX TEMP:  60;

$$


CITY           SKY/WX    TMP DP  RH WIND       PRES   REMARKS
LINCOLN        SUNNY     63  50  63 SW8       29.51F
6HR MIN TEMP:  47; 6HR MAX TEMP:  63;

MACOMB         SUNNY     54  46  76 SW16G23   29.51S
6HR MIN TEMP:  44; 6HR MAX TEMP:  54;

MATTOON        SUNNY     60  51  72 S10G21    29.56F
6HR MIN TEMP:  48; 6HR MAX TEMP:  60;

MT CARMEL AP   SUNNY     63  54  73 SW22      29.59F
6HR MIN TEMP:  49; 6HR MAX TEMP:  63;

OLNEY-NOBLE AP SUNNY     61  59  94 SW8G16    29.59F
PARIS          MOSUNNY   59  55  87 S16       29.58F
6HR MIN TEMP:  46; 6HR MAX TEMP:  59;

PEORIA         SUNNY     57  44  62 SW15      29.49F
6HR MIN TEMP:  46; 6HR MAX TEMP:  57;

PONTIAC        SUNNY     59  50  72 SW17G25   29.50F
6HR MIN TEMP:  42; 6HR MAX TEMP:  59;

RANTOUL        SUNNY     61  52  72 SW16      29.52F
6HR MIN TEMP:  42; 6HR MAX TEMP:  61;

SPRINGFIELD    SUNNY     62  47  57 SW14G23   29.51F
6HR MIN TEMP:  50; 6HR MAX TEMP:  62;

TAYLORVILLE    SUNNY     60  51  71 SW16      29.53F
6HR MIN TEMP:  48; 6HR MAX TEMP:  60;

$$

...REGIONAL REPORTS...


CITY           SKY/WX    TMP DP  RH WIND       PRES   REMARKS
CHICAGO O`HARE MOSUNNY   57  46  66 S14G23    29.47F
KANKAKEE       SUNNY     58  51  76 SW13G18   29.51F
MOLINE         MOSUNNY   51  43  74 SW12      29.45S
MOUNT STERLING SUNNY     55  44  64 W10G18    29.50F
MOUNT VERNON   SUNNY     64  54  69 SW13      29.58F
PITTSFIELD     SUNNY     58  43  58 SW16      29.52F
QUINCY         SUNNY     54  45  71 SW18      29.50F
ROCKFORD       MOSUNNY   54  47  77 S13       29.45F
$$


CITY           SKY/WX    TMP DP  RH WIND       PRES   REMARKS
BURLINGTON     SUNNY     51  45  79 SW10      29.47F
CEDAR RAPIDS   FOG       43  43 100 SW8       29.43F VSB 1/2
DES MOINES     CLOUDY    46  43  89 SW12      29.44S
KIRKSVILLE     CLOUDY    45  44  97 S12       29.52R FOG
OTTUMWA        CLOUDY    45  42  89 SW12      29.46S FOG
ST LOUIS       MOSUNNY   67  41  38 SW18      29.54
$$


CITY           SKY/WX    TMP DP  RH WIND       PRES   REMARKS
TERRE HAUTE    CLOUDY    61  53  75 S15G23    29.59F
EVANSVILLE     CLOUDY    66  54  65 SW18      29.63F
INDIANAPOLIS   CLOUDY    60  52  74 S9        29.60F
LAFAYETTE      CLOUDY    60  52  74 S14       29.57F
MADISON        FOG       45  45 100 S5        29.43F VSB 1
MILWAUKEE      CLOUDY    49  45  86 SE7       29.47F FOG
$$






USA.gov is the U.S. government's official web portal to all federal, state and local government web resources and services.